Weather History for Hobart, OK

Change the Weather History Date:

Sunday, October 6, 2013

  Actual Average Record
Temperature  
Mean Temperature 60 °F -  
Max Temperature 77 °F 75 °F 90 °F (2007)
Min Temperature 46 °F 52 °F 36 °F (2001)
Degree Days  
Heating Degree Days 4    
Growing Degree Days 10 (Base 50)    
Moisture  
Dew Point 36 °F    
Average Humidity 45    
Maximum Humidity 77    
Minimum Humidity 21    
Precipitation  
Precipitation 0.00 in - - ()
Sea Level Pressure  
Sea Level Pressure 30.11 in    
Wind  
Wind Speed 11 mph (NNW)    
Max Wind Speed 25 mph    
Max Gust Speed 33 mph    
Visibility 10 miles    
Events      
Averages and records for this station are not official NWS values.
T = Trace of Precipitation, MM = Missing Value Source: NWS Daily Summary

Daily Weather History Graph

Daily Weather History Graph

Search for Another Location

Airport:

Trip Planner

Search our weather history database for the weather conditions in past years. The results will help you decide how hot, cold, wet, or windy it might be!

Date:

Astronomy

Oct. 06, 2013 Rise Set
Actual Time 7:35 AM CDT 7:12 PM CDT
Civil Twilight 7:09 AM CDT 7:38 PM CDT
Nautical Twilight 6:40 AM CDT 8:07 PM CDT
Astronomical Twilight 6:11 AM CDT 8:36 PM CDT
Moon 9:15 AM CDT (10/6) 8:19 PM CDT (10/6)
Length of Visible Light 12h 28m
Length of Day
11h 37m
Waxing Crescent, 3% of the Moon is Illuminated
Oct 6
Waxing Crescent
Oct 11
First Quarter
Oct 18
Full
Oct 26
Last Quarter
Nov 3
New

Hourly Weather History & Observations

Time (CDT) Temp. Windchill Dew Point Humidity Pressure Visibility Wind Dir Wind Speed Gust Speed Precip Events Conditions
12:53 AM 48.0 °F - 41.0 °F 77% 30.11 in 9.0 mi West 5.8 mph - N/A   Clear
1:53 AM 46.9 °F - 39.9 °F 77% 30.11 in 10.0 mi WNW 6.9 mph - N/A   Clear
2:53 AM 48.9 °F - 39.0 °F 69% 30.12 in 10.0 mi NW 10.4 mph - N/A   Clear
3:53 AM 46.0 °F 41.9 °F 37.9 °F 73% 30.11 in 10.0 mi NW 8.1 mph - N/A   Clear
4:53 AM 46.0 °F 41.9 °F 36.0 °F 68% 30.11 in 10.0 mi NW 8.1 mph - N/A   Clear
5:53 AM 46.9 °F - 32.0 °F 56% 30.12 in 10.0 mi NW 9.2 mph - N/A   Clear
6:53 AM 48.0 °F - 30.9 °F 52% 30.14 in 10.0 mi North 15.0 mph - N/A   Clear
7:53 AM 50.0 °F - 30.0 °F 46% 30.16 in 10.0 mi NNW 15.0 mph - N/A   Clear
8:53 AM 55.0 °F - 30.0 °F 38% 30.15 in 10.0 mi NNW 17.3 mph 24.2 mph N/A   Clear
9:53 AM 59.0 °F - 28.9 °F 32% 30.15 in 10.0 mi North 25.3 mph 33.4 mph N/A   Clear
10:53 AM 61.0 °F - 28.9 °F 30% 30.17 in 10.0 mi North 23.0 mph 33.4 mph N/A   Clear
11:53 AM 64.0 °F - 28.9 °F 27% 30.17 in 10.0 mi North 18.4 mph 29.9 mph N/A   Clear
12:53 PM 66.9 °F - 30.9 °F 26% 30.15 in 10.0 mi North 20.7 mph 26.5 mph N/A   Clear
1:53 PM 70.0 °F - 33.1 °F 26% 30.12 in 10.0 mi NNW 21.9 mph 29.9 mph N/A   Clear
2:53 PM 73.0 °F - 35.1 °F 25% 30.09 in 10.0 mi North 17.3 mph 24.2 mph N/A   Clear
3:53 PM 75.0 °F - 36.0 °F 24% 30.07 in 10.0 mi North 12.7 mph - N/A   Clear
4:53 PM 75.9 °F - 33.1 °F 21% 30.06 in 10.0 mi North 17.3 mph 23.0 mph N/A   Clear
5:53 PM 75.0 °F - 34.0 °F 22% 30.06 in 10.0 mi NNE 16.1 mph - N/A   Clear
6:53 PM 69.1 °F - 42.1 °F 38% 30.06 in 10.0 mi NNE 8.1 mph - N/A   Clear
7:53 PM 69.1 °F - 37.0 °F 31% 30.07 in 10.0 mi Calm Calm - N/A   Clear
8:53 PM 64.9 °F - 39.0 °F 39% 30.08 in 10.0 mi Calm Calm - N/A   Clear
9:53 PM 57.9 °F - 43.0 °F 58% 30.10 in 10.0 mi SSW 5.8 mph - N/A   Clear
10:53 PM 57.0 °F - 42.1 °F 57% 30.11 in 10.0 mi WSW 5.8 mph - N/A   Clear
11:53 PM 54.0 °F - 44.1 °F 69% 30.11 in 10.0 mi West 5.8 mph - N/A   Clear